Lawton, OK

12:31 AM CDT on September 30, 2016 (GMT -0500)
Lawton-Fort Sill Regional

Weather History for KLAW - November, 2012

Change the Weather History Date:

Sunday, November 4, 2012

  Actual Average Record
Temperature  
Mean Temperature 58 °F -  
Max Temperature 72 °F 64 °F 88 °F (2005)
Min Temperature 45 °F 40 °F 22 °F (1950)
Degree Days  
Heating Degree Days 6    
Growing Degree Days 8 (Base 50)    
Moisture  
Dew Point 35 °F    
Average Humidity 49    
Maximum Humidity 71    
Minimum Humidity 23    
Precipitation  
Precipitation 0.00 in - - ()
Sea Level Pressure  
Sea Level Pressure 30.13 in    
Wind  
Wind Speed 6 mph (NNE)    
Max Wind Speed 10 mph    
Max Gust Speed -    
Visibility 10 miles    
Events      
Averages and records for this station are not official NWS values.
T = Trace of Precipitation, MM = Missing Value Source: NWS Daily Summary

Daily Weather History Graph

Daily Weather History Graph

Search for Another Location

Airport or City:

Trip Planner

Search our weather history database for the weather conditions in past years. The results will help you decide how hot, cold, wet, or windy it might be!

Date:

Astronomy

Nov. 04, 2012 Rise Set
Actual Time 6:57 AM CST 5:36 PM CST
Civil Twilight 6:31 AM CST 6:02 PM CST
Nautical Twilight 6:01 AM CST 6:32 PM CST
Astronomical Twilight 5:31 AM CST 7:02 PM CST
Moon 10:18 PM CST (11/4) 11:39 AM CST (11/4)
Length of Visible Light 11h 31m
Length of Day
10h 39m
Waning Gibbous, 72% of the Moon is Illuminated
Nov 4
Waning Gibbous
Nov 6
Last Quarter
Nov 13
New
Nov 20
First Quarter
Nov 28
Full

Hourly Weather History & Observations

Time (CST) Temp. Dew Point Humidity Pressure Visibility Wind Dir Wind Speed Gust Speed Precip Events Conditions
12:53 AM 52.0 °F 35.1 °F 53% 30.14 in 10.0 mi NNE 6.9 mph - N/A   Clear
1:53 AM 48.9 °F 36.0 °F 61% 30.17 in 10.0 mi North 6.9 mph - N/A   Clear
1:53 AM 51.1 °F 35.1 °F 54% 30.17 in 10.0 mi NNE 8.1 mph - N/A   Clear
2:53 AM 50.0 °F 36.0 °F 59% 30.17 in 10.0 mi North 6.9 mph - N/A   Clear
3:53 AM 48.9 °F 36.0 °F 61% 30.17 in 10.0 mi NNE 8.1 mph - N/A   Clear
4:53 AM 46.9 °F 36.0 °F 66% 30.18 in 10.0 mi North 5.8 mph - N/A   Clear
5:53 AM 48.0 °F 36.0 °F 63% 30.18 in 10.0 mi North 9.2 mph - N/A   Clear
6:53 AM 48.0 °F 35.1 °F 61% 30.19 in 10.0 mi NNE 5.8 mph - N/A   Clear
7:53 AM 50.0 °F 36.0 °F 59% 30.20 in 10.0 mi NNE 10.4 mph - N/A   Clear
8:53 AM 53.1 °F 37.0 °F 55% 30.20 in 10.0 mi NNE 9.2 mph - N/A   Clear
9:53 AM 57.9 °F 36.0 °F 44% 30.20 in 10.0 mi NNE 9.2 mph - N/A   Clear
10:53 AM 63.0 °F 37.0 °F 38% 30.19 in 10.0 mi NNE 8.1 mph - N/A   Clear
11:53 AM 66.0 °F 35.1 °F 32% 30.17 in 10.0 mi Calm Calm - N/A   Clear
12:53 PM 68.0 °F 34.0 °F 28% 30.13 in 10.0 mi Variable 3.5 mph - N/A   Clear
1:53 PM 69.1 °F 33.1 °F 26% 30.09 in 10.0 mi Calm Calm - N/A   Clear
2:53 PM 71.1 °F 30.9 °F 23% 30.07 in 10.0 mi Calm Calm - N/A   Clear
3:53 PM 71.1 °F 30.9 °F 23% 30.06 in 10.0 mi Calm Calm - N/A   Clear
4:53 PM 70.0 °F 30.9 °F 24% 30.06 in 10.0 mi Calm Calm - N/A   Clear
5:53 PM 64.0 °F 34.0 °F 33% 30.06 in 10.0 mi SSE 5.8 mph - N/A   Clear
6:53 PM 55.0 °F 36.0 °F 49% 30.08 in 10.0 mi Calm Calm - N/A   Clear
7:53 PM 52.0 °F 36.0 °F 54% 30.08 in 10.0 mi SSE 3.5 mph - N/A   Clear
8:53 PM 46.9 °F 37.0 °F 68% 30.09 in 10.0 mi Calm Calm - N/A   Clear
9:53 PM 46.0 °F 37.0 °F 71% 30.09 in 10.0 mi Calm Calm - N/A   Clear
10:53 PM 45.0 °F 36.0 °F 71% 30.09 in 10.0 mi Calm Calm - N/A   Clear